NOZ522 ENGM-ENZV

Flight info

Callsign NOZ522
Flight time 0h 41m
Altitude 30000
Route ATLAP DCT IPMOD DCT ROPNO
Aircraft B738/M-SADE3GHIJ1LRWXY/LB1

Departure

Time 2026-03-26 13:13
Airport Oslo-Gardermoen International Airport (ENGM)

Arrival

Time 2026-03-26 13:54
Airport Stavanger Airport, Sola (ENZV)
Time Latitude Longitude Altitude Speed Heading
2026-03-26 12:52 60.19669 11.09976 681 ft 0 kts 107°
2026-03-26 13:06 60.19671 11.09966 653 ft 2 kts 107°
2026-03-26 13:06 60.19676 11.09934 681 ft 2 kts 107°
2026-03-26 13:06 60.19681 11.09902 675 ft 2 kts 107°
2026-03-26 13:07 60.19685 11.09870 677 ft 2 kts 107°
2026-03-26 13:07 60.19689 11.09850 677 ft 1 kts 107°
2026-03-26 13:07 60.19689 11.09849 677 ft 0 kts 107°
2026-03-26 13:09 60.19689 11.09850 681 ft 0 kts 107°
2026-03-26 13:09 60.19664 11.09865 681 ft 6 kts 218°
2026-03-26 13:09 60.19644 11.09716 681 ft 20 kts 263°
2026-03-26 13:10 60.19678 11.09430 681 ft 21 kts 285°
2026-03-26 13:10 60.19717 11.09151 680 ft 20 kts 286°
2026-03-26 13:10 60.19756 11.08882 674 ft 20 kts 285°
2026-03-26 13:10 60.19737 11.08651 677 ft 19 kts 198°
2026-03-26 13:11 60.19607 11.08578 677 ft 22 kts 196°
2026-03-26 13:11 60.19428 11.08474 679 ft 30 kts 196°
2026-03-26 13:11 60.19252 11.08371 679 ft 19 kts 205°
2026-03-26 13:11 60.19249 11.08128 668 ft 21 kts 287°
2026-03-26 13:12 60.19285 11.07877 668 ft 8 kts 287°
2026-03-26 13:12 60.19334 11.07856 668 ft 8 kts 15°
2026-03-26 13:12 60.19423 11.07905 669 ft 36 kts 16°
2026-03-26 13:12 60.19907 11.08185 671 ft 107 kts 16°
2026-03-26 13:13 60.20785 11.08706 820 ft 149 kts 14°
2026-03-26 13:13 60.21764 11.09281 1686 ft 147 kts 12°
2026-03-26 13:13 60.22756 11.09837 2571 ft 150 kts 12°
2026-03-26 13:13 60.23853 11.10450 2974 ft 181 kts 12°
2026-03-26 13:14 60.25153 11.11166 3276 ft 206 kts 12°
2026-03-26 13:14 60.26663 11.11291 3593 ft 230 kts 350°
2026-03-26 13:14 60.28290 11.10759 4316 ft 241 kts 350°
2026-03-26 13:14 60.29918 11.09852 5090 ft 248 kts 331°
2026-03-26 13:15 60.31182 11.07505 6007 ft 252 kts 305°
2026-03-26 13:15 60.31787 11.04210 6852 ft 260 kts 279°
2026-03-26 13:15 60.31645 11.00532 7715 ft 268 kts 261°
2026-03-26 13:15 60.31186 10.96878 8651 ft 269 kts 258°
2026-03-26 13:16 60.30672 10.93231 9516 ft 272 kts 256°
2026-03-26 13:16 60.30140 10.89529 10166 ft 283 kts 256°
2026-03-26 13:16 60.29577 10.85572 10532 ft 301 kts 256°
2026-03-26 13:16 60.28994 10.81450 11182 ft 308 kts 256°
2026-03-26 13:17 60.28407 10.77270 12032 ft 312 kts 256°
2026-03-26 13:17 60.27811 10.73020 12769 ft 319 kts 255°
2026-03-26 13:17 60.27218 10.68777 13681 ft 319 kts 255°
2026-03-26 13:17 60.26613 10.64441 14398 ft 325 kts 255°
2026-03-26 13:18 60.25998 10.60032 15187 ft 329 kts 255°
2026-03-26 13:18 60.25374 10.55565 15961 ft 334 kts 255°
2026-03-26 13:18 60.24743 10.51055 16769 ft 337 kts 255°
2026-03-26 13:18 60.24101 10.46476 17486 ft 343 kts 255°
2026-03-26 13:19 60.23449 10.41834 18209 ft 347 kts 254°
2026-03-26 13:19 60.22791 10.37167 18953 ft 349 kts 254°
2026-03-26 13:19 60.22132 10.32505 19614 ft 352 kts 254°
2026-03-26 13:19 60.21456 10.27731 20235 ft 357 kts 253°
2026-03-26 13:20 60.20775 10.22942 21047 ft 357 kts 253°
2026-03-26 13:20 60.20086 10.18113 21644 ft 362 kts 253°
2026-03-26 13:20 60.19382 10.13191 22101 ft 371 kts 253°
2026-03-26 13:20 60.18668 10.08208 22833 ft 371 kts 253°
2026-03-26 13:21 60.17951 10.03216 23391 ft 375 kts 253°
2026-03-26 13:21 60.17221 9.98155 23884 ft 377 kts 253°
2026-03-26 13:21 60.16491 9.93100 24509 ft 377 kts 255°
2026-03-26 13:21 60.15767 9.88102 25033 ft 379 kts 255°
2026-03-26 13:22 60.15023 9.83001 25528 ft 382 kts 255°
2026-03-26 13:22 60.14106 9.77965 26003 ft 388 kts 247°
2026-03-26 13:22 60.12876 9.73122 26529 ft 391 kts 245°
2026-03-26 13:22 60.11591 9.68300 27058 ft 392 kts 245°
2026-03-26 13:23 60.10292 9.63478 27611 ft 393 kts 245°
2026-03-26 13:23 60.08991 9.58646 28150 ft 395 kts 246°
2026-03-26 13:23 60.07691 9.53792 28649 ft 397 kts 246°
2026-03-26 13:23 60.06389 9.48918 29174 ft 398 kts 247°
2026-03-26 13:24 60.05084 9.44019 29609 ft 401 kts 248°
2026-03-26 13:24 60.02460 9.34171 29584 ft 402 kts 248°
2026-03-26 13:25 59.99841 9.24397 29601 ft 398 kts 248°
2026-03-26 13:25 59.97220 9.14631 29611 ft 400 kts 248°
2026-03-26 13:26 59.94597 9.04904 29610 ft 401 kts 248°
2026-03-26 13:26 59.91945 8.95117 29623 ft 401 kts 248°
2026-03-26 13:27 59.89283 8.85335 29639 ft 402 kts 248°
2026-03-26 13:27 59.86611 8.75559 29631 ft 402 kts 249°
2026-03-26 13:27 59.85270 8.70665 29291 ft 402 kts 248°
2026-03-26 13:28 59.83955 8.65889 28947 ft 397 kts 248°
2026-03-26 13:28 59.82638 8.61114 28602 ft 391 kts 248°
2026-03-26 13:28 59.81336 8.56399 28205 ft 387 kts 248°
2026-03-26 13:28 59.80047 8.51734 27822 ft 384 kts 248°
2026-03-26 13:29 59.78766 8.47106 27446 ft 380 kts 248°
2026-03-26 13:29 59.77497 8.42528 27050 ft 378 kts 247°
2026-03-26 13:29 59.76235 8.37979 26679 ft 375 kts 247°
2026-03-26 13:29 59.74978 8.33471 26293 ft 372 kts 247°
2026-03-26 13:30 59.73727 8.28988 25914 ft 370 kts 247°
2026-03-26 13:30 59.72502 8.24558 25642 ft 364 kts 247°
2026-03-26 13:30 59.71315 8.20230 25299 ft 362 kts 247°
2026-03-26 13:30 59.70119 8.15866 24943 ft 359 kts 247°
2026-03-26 13:31 59.68931 8.11533 24582 ft 357 kts 246°
2026-03-26 13:31 59.67748 8.07227 24234 ft 355 kts 246°
2026-03-26 13:31 59.66568 8.02946 23882 ft 353 kts 246°
2026-03-26 13:31 59.65392 7.98688 23535 ft 352 kts 246°
2026-03-26 13:32 59.64219 7.94450 23143 ft 351 kts 246°
2026-03-26 13:32 59.63049 7.90232 22726 ft 349 kts 245°
2026-03-26 13:32 59.61899 7.86095 22343 ft 346 kts 245°
2026-03-26 13:32 59.60744 7.81952 22001 ft 343 kts 245°
2026-03-26 13:33 59.59601 7.77855 21640 ft 340 kts 245°
2026-03-26 13:33 59.58464 7.73787 21295 ft 337 kts 245°
2026-03-26 13:33 59.57334 7.69751 20935 ft 335 kts 245°
2026-03-26 13:33 59.56212 7.65750 20623 ft 332 kts 245°
2026-03-26 13:34 59.55097 7.61783 20253 ft 330 kts 245°
2026-03-26 13:34 59.53989 7.57845 19942 ft 327 kts 244°
2026-03-26 13:34 59.52887 7.53933 19585 ft 325 kts 244°
2026-03-26 13:34 59.51806 7.50104 19257 ft 324 kts 244°
2026-03-26 13:35 59.50714 7.46245 18928 ft 322 kts 244°
2026-03-26 13:35 59.49627 7.42406 18594 ft 320 kts 244°
2026-03-26 13:35 59.48547 7.38601 18270 ft 317 kts 243°
2026-03-26 13:35 59.47473 7.34823 17936 ft 315 kts 243°
2026-03-26 13:36 59.46410 7.31089 17582 ft 312 kts 243°
2026-03-26 13:36 59.45354 7.27392 17251 ft 308 kts 243°
2026-03-26 13:36 59.44309 7.23737 16927 ft 305 kts 242°
2026-03-26 13:36 59.43273 7.20110 16608 ft 303 kts 243°
2026-03-26 13:37 59.42259 7.16569 16288 ft 300 kts 243°
2026-03-26 13:37 59.41237 7.13011 15956 ft 298 kts 242°
2026-03-26 13:37 59.40219 7.09474 15641 ft 296 kts 243°
2026-03-26 13:37 59.39209 7.05971 15327 ft 295 kts 243°
2026-03-26 13:38 59.38203 7.02479 15010 ft 293 kts 242°
2026-03-26 13:38 59.37202 6.99008 14697 ft 292 kts 242°
2026-03-26 13:38 59.36204 6.95554 14382 ft 290 kts 243°
2026-03-26 13:38 59.35222 6.92162 14079 ft 289 kts 242°
2026-03-26 13:39 59.34230 6.88743 13783 ft 288 kts 243°
2026-03-26 13:39 59.33239 6.85335 13452 ft 287 kts 243°
2026-03-26 13:39 59.32203 6.81997 13161 ft 285 kts 240°
2026-03-26 13:39 59.31118 6.78764 12856 ft 284 kts 239°
2026-03-26 13:40 59.30027 6.75554 12552 ft 282 kts 239°
2026-03-26 13:40 59.28946 6.72360 12240 ft 281 kts 240°
2026-03-26 13:40 59.27870 6.69169 11918 ft 280 kts 240°
2026-03-26 13:40 59.26800 6.65991 11614 ft 279 kts 241°
2026-03-26 13:41 59.25751 6.62877 11327 ft 278 kts 241°
2026-03-26 13:41 59.24691 6.59734 11018 ft 276 kts 241°
2026-03-26 13:41 59.23637 6.56611 10721 ft 275 kts 241°
2026-03-26 13:41 59.22584 6.53492 10411 ft 274 kts 241°
2026-03-26 13:42 59.21537 6.50390 10099 ft 273 kts 240°
2026-03-26 13:42 59.20496 6.47318 9922 ft 267 kts 242°
2026-03-26 13:42 59.19483 6.44327 9821 ft 262 kts 242°
2026-03-26 13:42 59.18471 6.41338 9497 ft 265 kts 242°
2026-03-26 13:43 59.17454 6.38345 9237 ft 264 kts 242°
2026-03-26 13:43 59.16449 6.35394 8958 ft 265 kts 242°
2026-03-26 13:43 59.15430 6.32397 8675 ft 266 kts 242°
2026-03-26 13:43 59.14398 6.29383 8384 ft 268 kts 242°
2026-03-26 13:44 59.13367 6.26367 8104 ft 266 kts 243°
2026-03-26 13:44 59.12302 6.23429 7809 ft 268 kts 232°
2026-03-26 13:44 59.10752 6.21396 7728 ft 272 kts 208°
2026-03-26 13:44 59.08965 6.20058 7550 ft 278 kts 204°
2026-03-26 13:45 59.07143 6.18800 7326 ft 276 kts 204°
2026-03-26 13:45 59.05323 6.17557 7003 ft 278 kts 204°
2026-03-26 13:45 59.03518 6.16330 6664 ft 279 kts 204°
2026-03-26 13:45 59.01672 6.15071 6311 ft 282 kts 204°
2026-03-26 13:46 58.99821 6.13808 6039 ft 281 kts 204°
2026-03-26 13:46 58.97984 6.12556 5782 ft 278 kts 204°
2026-03-26 13:46 58.96215 6.11356 5687 ft 260 kts 204°
2026-03-26 13:46 58.94561 6.10235 5494 ft 245 kts 205°
2026-03-26 13:47 58.93013 6.09173 5312 ft 227 kts 205°
2026-03-26 13:47 58.91535 6.08170 4926 ft 225 kts 205°
2026-03-26 13:47 58.90092 6.07191 4724 ft 219 kts 205°
2026-03-26 13:47 58.88681 6.06219 4623 ft 213 kts 210°
2026-03-26 13:48 58.87489 6.04745 4560 ft 198 kts 227°
2026-03-26 13:48 58.86400 6.03132 4364 ft 196 kts 225°
2026-03-26 13:48 58.85323 6.01585 4203 ft 192 kts 226°
2026-03-26 13:48 58.84242 6.00029 3989 ft 194 kts 225°
2026-03-26 13:49 58.83212 5.98415 3794 ft 185 kts 241°
2026-03-26 13:49 58.82815 5.96340 3629 ft 153 kts 284°
2026-03-26 13:49 58.83037 5.94424 3444 ft 146 kts 295°
2026-03-26 13:49 58.83309 5.92477 3319 ft 155 kts 294°
2026-03-26 13:50 58.83587 5.90500 3091 ft 151 kts 294°
2026-03-26 13:50 58.83844 5.88577 2942 ft 146 kts 295°
2026-03-26 13:50 58.84110 5.86715 2783 ft 141 kts 296°
2026-03-26 13:50 58.84377 5.84895 2607 ft 141 kts 294°
2026-03-26 13:51 58.84652 5.83035 2362 ft 144 kts 295°
2026-03-26 13:51 58.84929 5.81192 2128 ft 141 kts 294°
2026-03-26 13:51 58.85188 5.79421 1958 ft 137 kts 293°
2026-03-26 13:51 58.85447 5.77663 1741 ft 134 kts 295°
2026-03-26 13:52 58.85695 5.76021 1519 ft 123 kts 294°
2026-03-26 13:52 58.85937 5.74414 1302 ft 126 kts 295°
2026-03-26 13:52 58.86176 5.72828 1139 ft 122 kts 295°
2026-03-26 13:52 58.86414 5.71246 954 ft 125 kts 294°
2026-03-26 13:53 58.86659 5.69634 738 ft 124 kts 294°
2026-03-26 13:53 58.86879 5.68034 573 ft 124 kts 295°
2026-03-26 13:53 58.87165 5.66470 373 ft 123 kts 297°
2026-03-26 13:53 58.87465 5.64916 209 ft 125 kts 298°
2026-03-26 13:54 58.87741 5.63336 43 ft 124 kts 294°
2026-03-26 13:54 58.87952 5.61987 21 ft 76 kts 287°
2026-03-26 13:54 58.88039 5.61413 22 ft 17 kts 286°
2026-03-26 13:54 58.88052 5.61209 20 ft 9 kts 281°
2026-03-26 13:55 58.88081 5.61179 20 ft 1 kts 21°
2026-03-26 13:55 58.88080 5.61194 20 ft 1 kts 104°
2026-03-26 13:55 58.88074 5.61220 20 ft 6 kts 110°
2026-03-26 13:55 58.88045 5.61386 24 ft 16 kts 107°
2026-03-26 13:56 58.88028 5.61593 24 ft 16 kts 71°
2026-03-26 13:56 58.88099 5.61748 21 ft 15 kts 44°
2026-03-26 13:56 58.88173 5.61888 22 ft 15 kts 44°
2026-03-26 13:56 58.88244 5.62021 23 ft 14 kts 44°
2026-03-26 13:57 58.88235 5.62174 28 ft 13 kts 135°
2026-03-26 13:57 58.88171 5.62299 27 ft 13 kts 134°
2026-03-26 13:57 58.88105 5.62430 27 ft 16 kts 133°
2026-03-26 13:57 58.88018 5.62639 26 ft 18 kts 109°
2026-03-26 13:58 58.88013 5.62824 28 ft 2 kts 356°
2026-03-26 13:58 58.88032 5.62822 27 ft 4 kts 359°
2026-03-26 13:58 58.88058 5.62822 27 ft 3 kts 360°
2026-03-26 13:59 58.88063 5.62822 27 ft 0 kts 360°